Location: Valencia
(39.4670°N, 0.3670°W)
Time: 18:17:49
(UTC+02:00)

ISS - Pass Details

Date: 11 August 2017
Orbit: 401 x 408 km, 51.6° (Epoch: 19 August)

Event Time Altitude Azimuth Distance (km) Brightness Sun altitude
Rises 22:51:30 0° 296° (WNW) 2,313 1.5 -19.1°
Reaches altitude 10° 22:53:50 10° 282° (WNW) 1,450 -0.1 -19.4°
Maximum altitude 22:56:28 23° 227° (SW) 903 -2.0 -19.8°
Enters shadow 22:56:40 23° 221° (SW) 907 -2.1 -19.8°
